Hourly Data Report for October 15, 2016

All times are specified in Local Standard Time (LST). Add 1 hour to adjust for Daylight Saving Time where and when it is observed.

SAINT JOHN A
NEW BRUNSWICK

45°18'58.000" N
65°53'24.000" W
108.80 m
8104901
71609
YSJ

Download Data

Hourly Data (October 2016)
Hourly Data Report for October 15, 2016
Temp Definition
°C
Dew Point Temp Definition
°C
Rel Hum Definition
%
Wind Dir Definition
10's deg

Wind Spd Definition
km/h
Visibility Definition
km
Stn Press Definition
kPa
Hmdx Definition


Wind Chill Definition


Weather Definition


TIME
00:00 Legend Double Dagger 1.6 -2.5 74 35 4 24.1 101.43     LegendNANA
01:00 Legend Double Dagger 1.4 -2.7 74 35 10 24.1 101.45     LegendNANA
02:00 Legend Double Dagger -2.0 -3.0 93 36 1 24.1 101.44   -2 Mainly Clear
03:00 Legend Double Dagger -3.0 -3.0 100 31 6 24.1 101.53   -5 LegendNANA
04:00 Legend Double Dagger -1.9 -1.9 100 36 1 24.1 101.53   -2 LegendNANA
05:00 Legend Double Dagger -2.3 -2.3 100 33 3 24.1 101.56   -3 Mainly Clear
06:00 Legend Double Dagger -3.0 -3.3 98 33 5 24.1 101.62   -5 LegendNANA
07:00 Legend Double Dagger -3.0 -3.0 100 0 1 24.1 101.62   -3 LegendNANA
08:00 Legend Double Dagger 1.4 0.8 96 36 4 24.1 101.73     Mainly Clear
09:00 Legend Double Dagger 4.8 -1.0 66 1 13 24.1 101.72     LegendNANA
10:00 Legend Double Dagger 6.1 -1.3 59 35 16 24.1 101.76     LegendNANA
11:00 Legend Double Dagger 8.1 -1.7 50 36 21 24.1 101.77     Mostly Cloudy
12:00 Legend Double Dagger 9.3 -1.7 46 2 10 24.1 101.71     LegendNANA
13:00 Legend Double Dagger 9.9 -3.1 40 33 8 24.1 101.60     LegendNANA
14:00 Legend Double Dagger 10.3 -3.7 37 34 10 24.1 101.55     Mostly Cloudy
15:00 Legend Double Dagger 10.6 -4.2 35 34 12 24.1 101.51     LegendNANA
16:00 Legend Double Dagger 9.6 -0.6 49 20 12 24.1 101.50     LegendNANA
17:00 Legend Double Dagger 8.6 -0.4 53 18 12 24.1 101.48     Mostly Cloudy
18:00 Legend Double Dagger 4.9 0.3 72 16 4 24.1 101.44     LegendNANA
19:00 Legend Double Dagger 1.7 0.2 90 34 4 24.1 101.44     LegendNANA
20:00 Legend Double Dagger 0.7 -0.2 94 36 2 24.1 101.44     Mainly Clear
21:00 Legend Double Dagger -0.1 -0.5 97 36 2 24.1 101.41   -1 LegendNANA
22:00 Legend Double Dagger 0.2 0.2 100 36 3 24.1 101.38     LegendNANA
23:00 Legend Double Dagger -0.6 -0.6 100 4 3 24.1 101.37   -2 Mainly Clear

Notes on Data Quality.

Legend

  • E = Estimated
  • M = Missing
  • NA = Not Available
  • ‡ = Partner data that is not subject to review by the National Climate Archives
Date modified: